Regional Weather Roundup
Issued by NWS

Home | Current Version | Previous Version | Text Only | Print | Product List | Glossary Off
Versions: 1 2 3 4 5 6 7 8 9 10 11 12 13 14 15 16 17 18 19 20 21 22 23 24 25 26 27 28 29 30 31 32 33 34 35 36 37 38 39 40 41 42 43 44 45 46 47 48 49 50

000
ASUS45 KABQ 210810
RWRNM
WEATHER ROUNDUP FOR NEW MEXICO
NATIONAL WEATHER SERVICE ALBUQUERQUE NM
100 AM MST FRI NOV 21 2014

NOTE: "FAIR" MEANS FEW OR NO CLOUDS BELOW 12,000 FEET AGL WITH NO
       SIGNIFICANT WEATHER OR OBSTRUCTIONS TO VISION.

      THIS PRODUCT IS RELEASED AS TWO VERSIONS.  ONE VERSION NEAR
      THE TOP OF THE HOUR CONTAINING PRELIMINARY DATA FROM ALBUQUERQUE
      AND OTHER STATIONS.  A FINAL VERSION WITH ADDITIONAL DATA IS
      ISSUED ABOUT 10 MINUTES AFTER THE HOUR.

NMZ501-503-504-510>518-210900-
NORTHWEST PLATEAU/NORTHCENTRAL MOUNTAINS

CITY           SKY/WX    TMP DP  RH WIND       PRES   REMARKS
FARMINGTON     CLEAR     27  14  58 E6        30.07F WCI  20
LOS ALAMOS     CLEAR     39  13  34 CALM      30.09S
SANTA FE       CLEAR     29  12  49 N3        30.06S
TAOS           CLEAR     25  18  74 CALM      30.08F
ANGEL FIRE     FAIR      14   7  73 S3        30.09F

$$
NMZ402-403-502-505>509-210900-
WESTCENTRAL MOUNTAINS/SOUTHWEST MOUNTAINS

CITY           SKY/WX    TMP DP  RH WIND       PRES   REMARKS
GALLUP         MOCLDY    26  12  55 NE5       30.09F WCI  20
GRANTS         MOCLDY    18   9  68 NW7       30.12S WCI   8
SILVER CITY    MOCLDY    39  18  41 CALM      30.09S

$$
NMZ407-409-411-412-210900-
SOUTHERN DESERTS

CITY           SKY/WX    TMP DP  RH WIND       PRES   REMARKS
LORDSBURG      FAIR      36  14  41 S8        30.05F WCI  29
DEMING         MOCLDY    35  16  45 CALM      30.05F
LAS CRUCES     MOCLDY    43  16  33 NW8       30.05S
HOLLOMAN AFB   MOCLDY    33  12  42 N5        30.02S WCI  28
ALAMOGORDO     MOCLDY    39  12  33 MISG      30.03S
T OR C         MOCLDY    46  17  31 NW10      30.03F

$$
NMZ519>523-210900-
CENTRAL VALLEYS/CENTRAL HIGHLANDS

CITY           SKY/WX    TMP DP  RH WIND       PRES   REMARKS
ALBUQUERQUE    CLEAR     37  12  35 CALM      30.06S
DOUBLE EAGLE   CLEAR     26   7  44 NW5       30.07S WCI  20
MORIARTY ARPT  FAIR      23  19  84 S3        30.08F
CLINES CORNERS CLEAR     31  13  47 W9        30.05F WCI  23
BELEN          FAIR      29   8  41 CALM      30.06F
SOCORRO        FAIR      35  11  38 NW5       30.04F WCI  30

$$
NMZ524>526-539-540-210900-
SOUTHCENTRAL MOUNTAINS

CITY           SKY/WX    TMP DP  RH WIND       PRES   REMARKS
RUIDOSO        MOCLDY    41   5  22 CALM      30.11S

$$
NMZ527>531-210900-
NORTHEAST HIGHLANDS/NORTHEAST PLAINS

CITY           SKY/WX    TMP DP  RH WIND       PRES   REMARKS
LAS VEGAS      CLEAR     31  16  54 S6        30.04F WCI  25
RATON          CLEAR     29  22  75 NW5       30.03S WCI  24
CLAYTON        PTCLDY    30  24  78 SW5       30.02F WCI  25

$$
NMZ532>537-210900-
EASTCENTRAL PLAINS

CITY           SKY/WX    TMP DP  RH WIND       PRES   REMARKS
TUCUMCARI      CLEAR     29  24  82 NE5       30.02F WCI  24
CANNON AFB     CLEAR     33  26  77 N8        30.01S WCI  25
CLOVIS AIRPORT CLEAR     27  21  80 N7        30.00S WCI  19

$$
NMZ028-029-538-210900-
SOUTHEAST PLAINS

CITY           SKY/WX    TMP DP  RH WIND       PRES   REMARKS
ROSWELL        PTCLDY    38  21  50 NE6       30.00S WCI  33
CARLSBAD       CLEAR     45  19  35 N8        29.99S
HOBBS          CLEAR     39  19  45 W5        30.00S


$$


USA.gov is the U.S. government's official web portal to all federal, state and local government web resources and services.